Вернуться в каталог

DELTA 1 DEB

АктивенSSO
NORAD 7150·DEBRIS·🇺🇸 United States

Запущен Nov 6, 1973 с Vandenberg Space Force Base

Loading…

Ближайшие Пролёты (ближайшие 24 часа)

TLE

СвежийSource: Space-Track

Эпоха: Sep 14, 2026, 15:26 UTC

1 07150U 73086DQ  26257.64363877  .00000506  00000-0  47501-2 0  9993
2 07150 101.8901 218.5778 0130293  99.1837  75.6425 12.26403752358072

Отслеживайте DELTA 1 DEB в реальном времени с AllMySat

Download on the App Store